Voltar ao catálogo

FENGYUN 1C DEB

AtivoPO
NORAD 31666·DEBRIS·🇨🇳 China

Lançado May 10, 1999 de Taiyuan Satellite Launch Center

Loading…

Próximas Passagens (próximas 24 horas)

TLE

AtualizadoSource: Space-Track

Época: Sep 14, 2026, 10:43 UTC

1 31666U 99025CBY 26257.44698735  .00025090  00000-0  18804-2 0  9994
2 31666  98.6655  79.1749 0014722 337.4016  22.6556 15.02591363 13544

Acompanhe FENGYUN 1C DEB em tempo real com AllMySat

Download on the App Store